www.pogodaiklimat.ru

Погода и климат >> Архив погоды >> Россия >> Адыгея >> Майкоп


ПОГОДА в Майкопе

АРХИВ ПОГОДЫ в Майкопе

Время (UTC), дата Ветер
(напр.,м/с)
 
Видим.   Явления Облачность Т
(С)
Тd
(С)
f
(%)
Тe
(С)
Тes
(С)
Комфортность P
(гПа)
Po
(гПа)
Тmin
(С)
Tmax
(С)
R
(мм)
R24
(мм)
S
(см)
12 13.05 З 1 10 км слаб. ливневой дождь 9/8 600 м
[Cb cap Ac trans]
+16.7 +12.8 78 +18 +20 по сезону 1020.9 995.1
15 13.05 СЗ 1 20 км {ливн. осадки} 6/3 1000 м
[Sc Ac trans]
+19.5 +11.0 58 +22 +23 комфорт 1019.7 994.1 +19.9 0.3
18 13.05 З 1 20 км {ливн. осадки} 10/5 1000 м
[Sc Ac und]
+13.2 +11.7 91 +13 +13 по сезону 1021.3 995.1
21 13.05 Ю 1 10 км 3/0
[Ac trans]
+11.3 +10.8 97 +11 +11 по сезону 1021.2 994.9
00 14.05 Ю 1 20 км 10/6 1000 м
[Sc Ac und]
+12.5 +10.8 89 +12 +12 тепло 1020.8 994.6
03 14.05 Ю 1 20 км 9/8 600 м
[Sc Ac trans]
+12.7 +10.4 86 +13 +13 по сезону 1021.0 994.8 +10.8
06 14.05 ЮЗ 1 20 км 4/0
[Ci fib]
+17.0 +11.1 68 +18 +29 тепло 1020.3 994.5
09 14.05 З 3 20 км 3/0
[Ci fib]
+22.0 +9.7 46 +24 +38 комфорт 1018.9 993.6
12 14.05 СЗ 3 20 км 3/1 1000 м
[Cu hum Ci fib]
+23.7 +11.2 45 +25 +34 комфорт 1018.1 993.0
15 14.05 СЗ 2 20 км 3/1 1000 м
[Cu hum Ci fib]
+22.2 +11.4 50 +24 +26 комфорт 1018.0 992.7 +23.8
18 14.05 Ю 1 20 км ясно +13.6 +11.8 89 +14 +14 по сезону 1020.0 993.9
21 14.05 ЮВ 2 20 км ясно +14.1 +10.9 81 +14 +14 тепло 1020.2 994.2
00 15.05 ЮВ 2 20 км ясно +12.6 +9.5 81 +12 +12 по сезону 1019.7 993.5
03 15.05 Ю 3 20 км ясно +12.5 +8.8 78 +11 +12 по сезону 1019.6 993.4 +12.0
06 15.05 СВ 2 20 км 8/0
[Ci fib]
+20.6 +13.5 64 +24 +32 комфорт 1019.3 993.9
09 15.05 СВ 1 20 км 6/0
[Ci sp]
+24.5 +10.6 42 +26 +45 жарко 1018.2 993.1
12 15.05 СВ 3 20 км 8/0
[Ci sp]
+25.7 +10.5 38 +27 +35 жарко 1016.9 991.9
15 15.05 СВ 3 20 км 9/0
[Ci sp]
+24.5 +11.9 45 +26 +27 жарко 1016.5 991.4 +26.0
18 15.05 В 1 20 км 10/0
[Ci sp]
+17.6 +11.8 69 +19 +19 тепло 1017.2 991.6
21 15.05 СВ 1 20 км 9/0
[Ci sp]
+13.4 +11.9 91 +14 +14 тепло 1016.7 990.7
00 16.05 ЮВ 1 20 км 10/0
[Ci sp]
+12.9 +11.3 90 +13 +13 тепло 1016.1 990.1
03 16.05 штиль 0 20 км 9/0
[Ci sp]
+14.7 +11.5 81 +14 +15 по сезону 1014.9 989.1 +11.5
06 16.05 В 3 20 км 3/0
[Ci sp]
+23.7 +12.8 50 +26 +34 жарко 1013.9 988.9
09 16.05 В 5 20 км ясно +27.4 +9.7 33 +28 +37 жарко 1012.6 987.9
12 16.05 В 5
{11}
20 км ясно +29.2 +9.8 30 +29 +36 жарко 1011.1 986.6
15 16.05 СВ 4 20 км ясно +28.3 +10.7 33 +29 +30 жарко 1010.0 985.4 +29.5
18 16.05 СВ 2 20 км ясно +22.0 +12.9 56 +25 +25 комфорт 1010.8 985.7
21 16.05 СВ 2 20 км ясно +18.7 +12.7 68 +20 +20 тепло 1011.0 985.6
00 17.05 В 1 20 км ясно +16.0 +12.5 80 +17 +17 тепло 1010.7 985.1
03 17.05 Ю 2 20 км 8/0
[Ci sp]
+16.3 +11.8 75 +16 +17 тепло 1011.0 985.4 +13.6
06 17.05 С 1 20 км 10/0
[Ac trans Ci sp]
+25.0 +13.0 47 +27 +33 жарко 1011.0 986.1
09 17.05 СЗ 2 20 км 8/0
[Ac trans Ci sp]
+27.2 +13.8 44 +29 +40 жарко 1011.0 986.3
12 17.05 С 3 20 км 3/0
[Ci sp]
+29.8 +13.7 37 +31 +41 жарко 1009.9 985.4
15 17.05 СВ 2 20 км 3/0
[Ci sp]
+28.7 +14.6 42 +31 +33 жарко 1008.5 984.0 +30.0
18 17.05 штиль 0 20 км ясно +18.8 +14.6 77 +20 +20 тепло 1008.9 983.6
21 17.05 ЮВ 1 20 км ясно +18.8 +15.2 80 +21 +21 комфорт 1008.4 983.1
00 18.05 ЮВ 1 20 км ясно +17.9 +13.9 77 +19 +19 тепло 1007.9 982.5
03 18.05 ЮВ 2 20 км 10/3 1000 м
[Sc Ac trans Ci sp]
+19.1 +12.8 67 +21 +21 комфорт 1007.5 982.2 +16.7
06 18.05 штиль 0 20 км 10/4 1000 м
[Sc Ac As Ci sp]
+23.9 +16.6 64 +27 +32 жарко 1006.3 981.5
09 18.05 СВ 2 20 км 8/1 1000 м
[Sc Ac As Ci sp]
+28.5 +16.9 49 +32 +42 душно 1005.9 981.5
12 18.05 СВ 4 20 км 4/1 1000 м
[Sc Ac As Ci sp]
+29.4 +14.1 39 +31 +38 жарко 1005.3 980.9
15 18.05 В 5 20 км 3/1 1000 м
[Sc Ci sp]
+27.9 +12.3 38 +29 +30 жарко 1004.6 980.1 +29.9
18 18.05 В 1 20 км 3/0
[Ci sp]
+21.7 +13.6 60 +24 +24 комфорт 1005.6 980.6
21 18.05 В 2 20 км 4/0
[Ci sp]
+18.9 +13.5 71 +20 +20 тепло 1005.4 980.1
00 19.05 С 1 20 км 8/0
[Ac As Ci sp]
+15.7 +13.3 86 +16 +16 тепло 1004.8 979.3
03 19.05 Ю 1 20 км 9/5 1000 м
[Sc Ac As Ci sp]
+16.6 +14.4 87 +17 +18 тепло 1006.3 980.9 +14.9
06 19.05 З 2 20 км в посл. час ливневой дождь 9/6 1000 м
[Cb cap Ac trans Ci sp]
+19.0 +15.3 79 +21 +23 комфорт 1008.1 982.9
09 19.05 СЗ 2 20 км 8/3 1000 м
[Sc Ac trans Ci sp]
+24.1 +15.7 59 +27 +35 жарко 1009.2 984.4
12 19.05 З 2 20 км в посл. час гроза {ливн. осадки} 10/8 1000 м
[Cb cap Ac As]
+21.5 +17.3 77 +26 +26 душно 1011.0 985.9
15 19.05 Ю 1 10 км слаб. ливневой дождь, в посл. час гроза 10/8 600 м
[Cb cap Ac As]
+19.3 +18.5 95 +23 +23 комфорт 1012.5 987.2 +24.6 2
18 19.05 ЮЗ 1 10 км {гроза, ливн. осадки} 10/4 1000 м
[Sc Ac As]
+18.0 +17.8 99 +19 +19 тепло 1012.5 987.1
21 19.05 штиль 0 10 км 9/3 1000 м
[Sc Ac trans Ci sp]
+16.5 +16.2 98 +16 +16 тепло 1012.9 987.3
00 20.05 ЮЗ 1 10 км 10/3 1000 м
[Sc Ac trans Ci sp]
+16.3 +16.1 99 +17 +17 тепло 1013.7 988.1
03 20.05 Ю 1 10 км 10/4 1000 м
[Sc Ac As]
+16.5 +16.2 98 +17 +17 тепло 1014.3 988.7 +16.2 0.4
06 20.05 З 1 20 км гроза без осадков 10/6 600 м
[Cb cap Ac As]
+18.1 +15.5 85 +19 +21 тепло 1015.6 990.1
09 20.05 СЗ 2 10 км гроза, ливневой дождь 10/8 600 м
[Cb cap Ac As]
+17.6 +16.0 90 +18 +19 по сезону 1017.3 991.7

 

Местоположение метеостанции Майкоп (Адыгея, Россия): широта 44.62 долгота 40.08 высота над уровнем моря 216 м.

В архиве по умолчанию представлена погода в Майкопе за последнюю неделю. Архивные данные за месяц целиком и за предыдущие месяцы, начиная с января 2011 года, Вы можете получить, выбрав интересующий диапазон дат из раскрывающегося списка и нажав кнопку "Ввод!".


*Определитесь, кто Вы:
робот инопланетянин человек

Внимание! Время в таблицах - всемирное. Для получения местного времени необходимо прибавить поправку, которая равна 3 ч.

Смотрите также архив погоды в соседних городах и на ближайших метеорологических станциях:

Погода в Шунтуке (Адыгея, Россия) (17 км)
Погода в Белореченске (Краснодарский край, Россия) (20 км)
Погода в Дондуковской (Адыгея, Россия) (34 км)
Погода в Лабинске (Краснодарский край, Россия) (53 км)
Погода в Даховской (Адыгея, Россия) (53 км)
Погода в Гузерипле (Адыгея, Россия) (69 км)
Погода в Усть-Лабинске (Краснодарский край, Россия) (73 км)
Погода в Горном (Краснодарский край, Россия) (75 км)
Погода в Горячем Ключе (Краснодарский край, Россия) (78 км)
Погода в Псебае (Краснодарский край, Россия) (78 км)

Пояснения к столбцам:

Ветер - указаны скорость ветра в м/с - средняя за 10 мин, порывы в срок и между сроками (в фигурных скобках) и направление, откуда дует ветер: С - северный, СВ - северо-восточный, В - восточный, ЮВ - юго-восточный, Ю - южный, ЮЗ - юго-западный, З - западный, СЗ - северо-западный.
Видимость - горизонтальная дальность видимости в метрах или километрах. При видимости от 1 до 10 км при отсутствии осадков обычно наблюдается дымка, при ухудшении видимости до 1 км и менее - туман. В сухую погоду видимость может ухудшаться дымом, пылью или мглою.
Явления - указаны атмосферные явления, наблюдавшиеся в срок или в последний час перед сроком; фигурными скобками обозначены явления, наблюдавшиеся между сроками (за 1-3 часа до срока); квадратными скобками обозначены град или гололедные отложения с указанием их диаметра в мм.
Облачность - указаны через наклонную черту общая и нижняя облачность в баллах и высота нижней границы облаков в метрах; квадратными скобками обозначены формы облаков: Ci - перистые, Cs - перисто-слоистые, Cc - перисто-кучевые, Ac - высококучевые, As - высокослоистые, Sc - слоисто-кучевые, Ns - слоисто-дождевые, Cu - кучевые, Cb - кучево-дождевые. Подробнее классификацию облаков см. в Атласе облаков (PDF).
T - Температура воздуха - температура, измеренная на высоте 2 м над землей.
Td - Температура точки росы - температура, при понижении до которой содержащийся в воздухе водяной пар достигнет насыщения.
f - Относительная влажность воздуха - влажноcть воздуха, измеренная на высоте 2 м над землей.
Te - Эффективная температура - температура, которую ощущает одетый по сезону человек в тени. Характеристика душности погоды. При расчете учитывается влияние влажности воздуха и скорости ветра на теплоощущения человека.
Tes - Эффективная температура на солнце - температура, которую ощущает человек, с поправкой на солнечный нагрев. Характеристика знойности погоды. Зависит от высоты солнца над горизонтом, облачности и скорости ветра. Ночью, в пасмурную погоду, а также при ветре 12 м/с и более поправка равна нулю.
P - Атмосферное давление - приведенное к уровню моря атмосферное давление.
Po - Атмосферное давление - измеренное на уровне метеостанции атмосферное давление.
Tmin - Минимальная температура - минимум температуры воздуха на высоте 2 м над землей.
Tmax - Максимальная температура - максимум температуры воздуха на высоте 2 м над землей.
R - Количество осадков - Количество выпавших осадков за период времени, мм. При наведении курсора мыши на число - период времени, за который выпало указанное количество осадков.
R24 - Количество осадков - Количество выпавших осадков за 24 часа, мм.
S - Снежный покров - Высота снежного покрова, см. При наведении курсора мыши на число - состояние снежного покрова и степень покрытия местности в баллах.